Location: Huntsville
(41.2590°N, 111.7678°W)
Time: 19:06:26
(UTC+00:00)

Explorer 7 - Pass Details

Date: 19 June 2021
Orbit: 484 x 676 km, 50.3° (Epoch: 30 July)

Event Time Altitude Azimuth Distance (km) Brightness Sun altitude
Rises 04:29:12 0° 232° (SW) 3,012 10.6 -13.1°
Reaches altitude 10° 04:31:34 10° 231° (SW) 2,103 9.8 -13.4°
Maximum altitude 04:36:27 80° 145° (SE) 685 7.1 -14.0°
Drops below altitude 10° 04:41:17 10° 59° (ENE) 2,075 9.7 -14.6°
Sets 04:43:35 0° 58° (ENE) 2,968 10.5 -14.9°
